Wind_Speed
15 17 19 22 24 27 30 33 35 37 39 41 43 45 48 51 53 55 57 59 61 63 66 70 74 78 82 84 84 82 79 77 75 73 70 67 66 65 64 63 61 58 56
15 18 20 23 25 28 31 34 37 39 41 43 45 47 50 53 55 57 60 61 63 65 68 72 76 79 82 82 81 80 77 74 73 72 71 68 61 58 57 56 54 51 49
17 19 21 24 27 29 32 35 38 41 43 45 47 50 52 55 58 60 62 64 66 68 70 74 77 80 81 80 79 77 75 72 70 70 71 70 66 58 50 48 47 45 43
19 21 23 26 28 30 33 36 39 42 45 47 50 52 54 57 60 62 64 66 68 70 72 75 77 79 79 78 76 75 73 71 68 67 67 67 66 62 53 43 41 40 39
22 24 26 28 31 33 35 38 41 44 47 49 51 54 56 59 61 64 66 68 69 71 73 76 77 78 78 76 74 73 71 70 68 66 64 62 60 58 56 45 37 35 35
26 28 29 31 34 36 38 40 42 45 48 51 53 55 58 60 63 65 67 69 71 72 74 76 77 77 76 74 72 70 69 68 67 65 64 62 58 54 51 45 38 34 30
30 31 33 35 37 39 41 42 44 47 49 52 54 57 59 61 64 66 69 70 72 73 75 76 76 76 74 72 70 68 67 66 65 63 62 60 57 53 48 44 38 33 28
33 34 36 38 40 41 43 45 46 48 50 53 56 58 60 63 65 67 70 71 72 73 75 75 75 74 73 70 68 67 65 64 63 61 60 58 55 51 46 42 38 32 25
35 37 38 40 42 44 45 47 48 50 51 54 56 59 61 64 66 68 71 72 73 74 75 75 74 73 71 69 67 65 64 62 61 59 58 56 52 49 44 41 37 33 25
39 40 41 42 44 46 47 49 50 51 53 55 57 59 61 64 67 69 71 73 74 74 75 75 74 72 70 68 65 63 63 61 59 58 56 54 50 47 43 39 36 33 27
42 43 43 45 46 48 49 51 52 53 54 55 57 60 62 65 68 69 72 73 74 74 74 74 73 71 69 67 64 62 62 59 57 56 55 52 48 45 41 37 34 31 27
44 45 46 47 48 49 51 52 53 54 55 56 58 60 62 65 68 70 72 73 73 73 74 73 72 70 68 66 63 61 60 58 56 54 53 50 46 43 40 36 33 30 26
46 47 48 49 50 51 53 53 54 55 55 56 58 60 63 65 68 70 72 73 73 73 73 72 71 69 67 65 62 59 59 58 55 53 51 48 44 42 39 35 32 28 25
49 50 50 51 52 53 54 55 55 56 56 57 59 61 63 65 68 70 72 73 72 72 72 71 70 68 66 63 61 58 57 56 54 52 50 47 43 40 38 34 31 28 24
50 51 52 53 53 54 55 56 56 57 57 58 59 61 63 66 68 70 72 72 72 71 71 70 69 67 65 62 60 57 56 55 53 51 48 46 42 39 37 34 30 27 24
51 52 54 54 55 56 57 57 57 57 58 59 60 62 64 66 68 70 71 71 70 70 70 69 68 66 64 61 59 57 56 55 53 50 47 45 41 38 36 33 30 27 24
52 54 55 55 56 57 58 58 58 58 59 60 61 62 64 66 68 70 71 70 69 69 68 68 67 65 62 59 57 55 54 54 52 50 47 44 40 37 34 32 29 26 24
53 55 56 57 57 58 58 59 58 59 60 61 62 64 65 67 68 69 69 69 68 67 66 66 65 63 61 58 56 53 53 52 51 49 46 43 40 36 33 31 28 26 23
56 57 58 58 58 59 59 60 60 60 61 62 63 64 65 67 68 68 68 67 67 66 65 65 64 62 60 57 55 52 51 50 50 48 46 44 40 35 31 29 28 25 23
58 59 60 60 60 60 60 60 61 61 62 62 63 64 65 66 67 66 66 66 65 64 63 63 62 60 58 56 54 51 50 48 47 46 45 44 40 35 30 28 26 24 22
61 62 62 62 61 61 61 61 61 62 63 63 63 63 64 64 65 64 64 64 63 62 61 61 61 59 57 55 53 50 49 47 46 45 43 42 40 35 30 26 25 24 22
64 64 64 63 62 62 62 62 62 62 63 63 63 63 63 62 62 62 62 62 60 60 59 59 59 58 56 53 51 49 48 47 45 44 42 41 39 35 30 26 24 23 22
63 63 63 62 62 62 62 62 62 62 62 62 62 62 62 61 60 60 60 59 58 57 57 57 56 55 54 52 49 48 46 46 44 43 42 40 39 36 31 27 23 22 21
60 60 60 60 59 59 59 59 60 60 60 60 60 60 59 59 59 57 57 56 56 55 55 54 54 53 52 50 48 46 45 44 43 42 41 40 39 37 33 28 25 21 20
56 56 56 55 55 56 56 57 58 58 58 58 58 57 57 56 56 54 54 53 53 52 52 52 51 50 49 48 46 44 42 42 41 41 40 39 38 37 34 29 25 22 20
53 53 53 53 53 54 54 54 55 55 55 55 56 56 55 54 53 51 50 50 50 50 50 49 49 48 47 46 44 42 41 41 40 40 39 38 37 36 34 29 24 21 19
Wind_Direction
339 342 343 343 343 343 342 340 339 337 337 336 336 336 336 335 334 333 331 329 327 326 325 324 324 324 324 324 323 322 321 319 317 315 314 313 311 309 305 302 298 292 283
336 339 340 342 343 343 342 341 340 339 338 338 337 337 336 336 335 334 333 331 330 329 328 327 327 327 327 326 325 324 323 322 320 319 318 317 316 313 310 307 303 297 289
330 333 336 338 339 341 341 341 341 340 339 339 338 337 337 336 336 335 334 333 332 331 330 330 330 330 330 329 328 326 325 325 323 322 321 321 321 319 317 312 307 302 296
327 330 331 333 335 337 339 340 340 340 340 339 339 338 337 337 336 336 335 334 333 333 332 332 332 332 332 331 329 328 327 327 327 325 324 324 323 323 323 319 312 307 301
325 326 328 329 331 333 335 337 339 339 339 339 338 338 337 337 337 337 336 335 335 334 334 334 334 334 333 332 331 330 329 329 329 328 328 327 326 324 324 324 318 310 304
323 324 326 327 329 331 333 334 336 337 338 337 337 337 337 337 337 337 337 336 336 336 336 336 336 335 335 334 333 332 331 331 331 331 330 330 329 326 325 324 322 316 306
319 322 324 326 327 329 330 331 333 334 335 336 336 336 337 337 337 337 338 337 337 337 337 337 337 337 336 336 335 334 333 333 333 333 333 332 331 329 328 327 325 321 311
316 319 321 323 324 325 327 329 330 331 333 334 335 335 336 337 337 337 338 338 338 338 338 338 338 338 338 337 336 336 335 335 335 335 335 335 334 332 330 328 327 326 316
313 315 318 319 321 322 324 326 327 329 330 332 333 334 335 336 337 338 338 338 338 339 339 340 340 340 339 339 338 338 337 337 336 337 337 336 336 334 332 330 329 328 323
310 312 315 316 318 319 321 323 324 326 327 329 331 332 334 335 336 337 338 339 339 340 340 341 341 341 341 340 340 339 339 338 338 339 339 338 337 336 334 332 330 328 325
307 309 311 313 314 316 318 320 322 323 325 326 328 330 332 334 335 336 338 339 339 340 341 342 342 342 342 341 341 341 341 340 340 340 340 340 339 338 337 334 331 328 326
304 306 308 310 311 313 315 317 319 321 323 324 326 328 330 332 334 336 337 338 339 340 341 342 342 343 343 343 342 342 342 342 341 341 342 341 340 340 339 337 333 330 327
302 303 305 307 309 311 313 315 316 318 320 322 324 326 328 331 333 335 336 338 339 340 341 342 343 344 344 344 344 343 343 343 343 343 343 344 343 342 342 340 336 333 329
300 301 303 304 306 308 310 312 314 316 318 320 322 324 326 329 332 334 335 337 338 340 341 342 344 344 345 345 344 344 344 345 345 344 344 345 345 344 344 343 340 335 330
297 298 300 301 303 306 308 310 312 314 316 318 320 322 324 327 330 333 334 336 337 339 341 342 344 345 346 345 345 345 345 346 347 346 346 346 346 346 346 345 343 340 334
295 296 298 299 301 304 306 308 311 312 314 316 318 320 322 325 328 331 333 334 336 338 340 342 344 345 346 346 346 346 346 347 348 348 347 347 347 347 346 346 345 342 337
293 294 296 298 300 303 305 307 309 310 312 314 316 318 320 323 326 329 332 333 335 337 339 342 344 345 346 346 346 346 347 348 349 349 349 348 347 346 346 346 344 342 338
292 293 294 296 299 301 303 305 306 308 309 312 314 316 318 321 324 327 330 331 333 336 338 341 343 345 346 347 347 347 348 348 349 350 350 349 348 347 347 347 346 344 341
291 293 294 296 298 300 301 303 304 306 307 309 311 313 316 319 322 325 328 330 331 334 337 340 343 345 346 347 348 348 349 349 350 350 351 352 350 348 347 348 349 348 345
290 292 294 295 297 299 300 302 303 304 305 307 309 311 314 317 320 323 326 328 330 332 336 339 342 344 346 347 348 349 349 350 351 351 352 353 353 351 349 349 350 350 348
291 292 294 295 297 298 299 301 302 303 304 306 307 310 312 315 318 321 324 326 328 331 334 337 341 344 346 347 348 349 350 351 352 352 353 353 354 353 351 351 351 352 351
291 292 294 295 296 297 298 299 300 301 303 304 306 308 310 313 316 319 321 324 326 329 332 336 340 343 346 347 348 348 349 351 352 353 354 354 355 355 355 353 352 353 352
292 293 294 295 295 296 297 297 298 299 301 303 304 306 309 311 314 317 320 321 324 327 331 335 339 342 345 347 348 348 349 351 352 353 354 355 356 358 358 357 354 353 353
294 294 294 295 295 296 297 297 298 299 300 302 303 305 308 310 312 316 318 319 321 325 329 333 338 341 345 347 347 348 349 350 352 353 354 355 357 358 359 358 357 355 354
294 294 295 295 296 296 297 298 299 300 301 303 304 305 307 309 312 314 316 317 319 323 327 332 336 341 344 346 347 347 348 350 351 353 354 355 357 358 358 356 356 356 355
296 295 295 296 297 298 298 299 300 301 302 303 304 304 306 309 311 312 314 315 318 321 325 330 335 340 343 346 347 347 348 350 352 353 354 355 357 358 358 357 355 355 355
Height
5836 5832 5828 5824 5819 5814 5808 5802 5796 5790 5783 5776 5768 5760 5751 5742 5733 5723 5712 5702 5690 5678 5665 5651 5636 5619 5600 5579 5559 5538 5519 5500 5481 5466 5453 5442 5425 5408 5392 5378 5366 5357 5351
5832 5828 5824 5819 5814 5809 5803 5797 5790 5783 5776 5768 5760 5751 5742 5732 5722 5712 5701 5689 5677 5664 5650 5636 5619 5601 5581 5560 5540 5519 5501 5483 5463 5445 5430 5420 5412 5397 5378 5362 5349 5339 5332
5828 5824 5819 5814 5809 5803 5797 5791 5784 5776 5768 5760 5751 5742 5733 5722 5712 5701 5689 5676 5663 5650 5635 5619 5602 5583 5564 5543 5523 5503 5484 5468 5451 5430 5411 5395 5384 5377 5368 5351 5337 5326 5318
5824 5819 5814 5809 5803 5798 5791 5784 5777 5769 5760 5752 5743 5733 5723 5713 5702 5690 5677 5664 5650 5636 5620 5604 5586 5567 5547 5527 5507 5488 5469 5452 5437 5421 5401 5382 5365 5352 5347 5341 5328 5316 5307
5819 5814 5809 5803 5797 5791 5784 5777 5769 5761 5753 5744 5734 5724 5714 5703 5691 5679 5666 5652 5637 5622 5606 5589 5571 5552 5533 5513 5493 5475 5457 5439 5423 5407 5392 5376 5359 5342 5329 5324 5319 5309 5299
5813 5808 5802 5796 5790 5784 5777 5769 5762 5753 5745 5735 5726 5716 5705 5693 5681 5668 5655 5640 5625 5609 5593 5576 5558 5539 5520 5500 5482 5464 5446 5429 5412 5395 5379 5364 5350 5337 5323 5313 5307 5300 5293
5806 5800 5795 5789 5782 5776 5769 5762 5754 5745 5736 5727 5717 5707 5696 5684 5672 5658 5644 5629 5614 5598 5581 5564 5546 5527 5508 5489 5471 5454 5437 5420 5403 5387 5371 5355 5340 5327 5316 5306 5298 5292 5286
5799 5793 5787 5781 5775 5768 5761 5753 5745 5737 5728 5719 5709 5698 5687 5675 5662 5649 5635 5620 5604 5587 5570 5553 5535 5516 5498 5480 5462 5445 5428 5411 5395 5380 5364 5349 5334 5321 5309 5299 5292 5286 5281
5791 5786 5780 5774 5767 5760 5753 5745 5737 5729 5720 5710 5700 5689 5678 5666 5653 5639 5625 5610 5594 5578 5561 5543 5525 5507 5489 5471 5454 5437 5420 5404 5389 5373 5358 5343 5330 5317 5305 5295 5286 5280 5275
5784 5778 5772 5765 5758 5751 5744 5736 5728 5720 5711 5701 5691 5680 5669 5657 5644 5630 5616 5600 5584 5568 5551 5534 5516 5499 5481 5463 5446 5430 5414 5398 5383 5368 5353 5339 5326 5313 5302 5292 5283 5276 5270
5775 5769 5763 5757 5750 5742 5735 5727 5719 5710 5701 5692 5682 5671 5660 5648 5635 5621 5607 5591 5575 5559 5542 5526 5508 5491 5473 5456 5440 5424 5408 5393 5378 5363 5349 5335 5322 5310 5299 5289 5281 5273 5267
5766 5760 5754 5748 5740 5733 5725 5717 5709 5701 5692 5683 5673 5662 5651 5639 5626 5612 5598 5583 5567 5551 5534 5518 5501 5484 5467 5450 5434 5418 5403 5388 5374 5360 5346 5332 5319 5308 5297 5287 5279 5271 5265
5756 5750 5744 5738 5730 5723 5715 5708 5699 5691 5682 5673 5663 5653 5642 5630 5617 5603 5589 5574 5559 5543 5527 5510 5494 5477 5460 5444 5428 5413 5399 5384 5369 5356 5342 5329 5317 5306 5295 5285 5277 5270 5264
5745 5739 5733 5727 5720 5713 5705 5698 5690 5681 5673 5664 5654 5643 5632 5620 5608 5595 5581 5566 5551 5535 5519 5503 5487 5471 5454 5438 5423 5409 5394 5380 5366 5352 5339 5327 5314 5304 5294 5284 5276 5269 5262
5734 5728 5722 5716 5709 5702 5695 5687 5680 5671 5663 5654 5644 5634 5623 5611 5599 5586 5572 5558 5543 5528 5513 5497 5480 5464 5449 5434 5419 5405 5391 5377 5363 5350 5336 5324 5312 5301 5292 5283 5274 5267 5261
5722 5716 5710 5704 5698 5691 5684 5677 5669 5661 5652 5643 5634 5624 5613 5602 5590 5577 5564 5550 5536 5521 5506 5491 5475 5459 5444 5429 5414 5400 5387 5373 5360 5347 5334 5322 5311 5300 5291 5282 5274 5267 5260
5710 5704 5698 5692 5686 5680 5673 5666 5658 5650 5641 5633 5623 5613 5603 5592 5580 5569 5556 5542 5528 5514 5499 5485 5469 5454 5439 5424 5410 5396 5383 5370 5357 5344 5332 5321 5310 5299 5290 5282 5274 5267 5260
5697 5692 5686 5680 5674 5668 5661 5654 5647 5638 5630 5621 5612 5603 5593 5582 5571 5560 5548 5535 5521 5508 5494 5479 5464 5449 5435 5421 5407 5394 5380 5367 5354 5342 5331 5319 5308 5298 5290 5281 5273 5266 5260
5684 5678 5673 5668 5662 5655 5648 5642 5634 5626 5618 5609 5601 5591 5582 5572 5561 5551 5539 5527 5514 5501 5488 5474 5460 5445 5431 5417 5404 5391 5378 5365 5353 5341 5329 5318 5307 5297 5289 5281 5273 5266 5260
5671 5665 5660 5655 5649 5642 5635 5628 5621 5613 5605 5597 5589 5580 5571 5561 5552 5542 5531 5519 5507 5494 5482 5469 5455 5441 5427 5414 5401 5389 5377 5365 5353 5340 5328 5317 5306 5296 5288 5280 5273 5267 5260
5656 5651 5645 5640 5635 5628 5621 5614 5607 5600 5592 5585 5577 5568 5560 5551 5542 5532 5522 5511 5499 5488 5476 5463 5451 5437 5424 5410 5398 5386 5374 5363 5351 5339 5328 5317 5306 5296 5288 5280 5273 5267 5260
5641 5635 5630 5626 5620 5613 5606 5600 5593 5586 5578 5571 5564 5556 5548 5540 5532 5523 5513 5503 5492 5481 5469 5457 5444 5432 5419 5407 5394 5383 5371 5360 5349 5338 5328 5317 5307 5297 5287 5280 5273 5267 5261
5625 5620 5614 5610 5605 5599 5592 5586 5579 5572 5565 5558 5551 5544 5537 5529 5521 5513 5504 5495 5485 5474 5463 5452 5439 5427 5415 5403 5391 5380 5369 5358 5347 5337 5326 5316 5306 5296 5287 5280 5273 5267 5262
5610 5605 5599 5595 5590 5583 5577 5571 5565 5558 5552 5546 5539 5532 5525 5518 5511 5503 5495 5487 5477 5467 5457 5446 5435 5423 5411 5400 5388 5377 5366 5356 5345 5335 5325 5316 5306 5296 5287 5280 5273 5267 5262
5595 5589 5584 5579 5574 5569 5563 5557 5550 5544 5538 5532 5526 5520 5514 5507 5501 5494 5486 5478 5470 5461 5451 5441 5430 5418 5408 5397 5386 5376 5366 5356 5346 5335 5325 5315 5306 5297 5288 5280 5274 5268 5263
5581 5575 5570 5565 5560 5555 5549 5543 5537 5531 5525 5520 5514 5508 5502 5497 5490 5484 5477 5470 5462 5454 5445 5435 5425 5414 5404 5393 5383 5373 5364 5354 5344 5334 5325 5315 5306 5297 5289 5281 5274 5269 5264